Weather History for KD07 - March, 2013

Change the Weather History Date:

Monday, March 25, 2013

  Actual Average Record
Temperature  
Mean Temperature 17 °F 36 °F  
Max Temperature 30 °F 47 °F 80 °F (2007)
Min Temperature 3 °F 25 °F 3 °F (2013)
Degree Days  
Heating Degree Days 48 29  
Month to date heating degree days 907 838  
Since 1 July heating degree days 6250 6526  
Cooling Degree Days 0 0  
Month to date cooling degree days 0 0  
Year to date cooling degree days 0 0  
Moisture  
Dew Point 9 °F    
Average Humidity 69    
Maximum Humidity 92    
Minimum Humidity 46    
Precipitation  
Precipitation 0.00 in 0.04 in 0.03 in (2011)
Month to date precipitation 0.41 0.70  
Year to date precipitation 0.98 1.32  
Sea Level Pressure  
Sea Level Pressure 30.43 in    
Wind  
Wind Speed 9 mph (NNW)    
Max Wind Speed 14 mph    
Max Gust Speed 21 mph    
T = Trace of Precipitation, MM = Missing Value Source: NWS Daily Summary

Daily Weather History Graph

Daily Weather History Graph

Search for Another Location

Airport or City:

Trip Planner

Search our weather history database for the weather conditions in past years. The results will help you decide how hot, cold, wet, or windy it might be!

Date:

Astronomy

Mar. 25, 2013 Rise Set
Actual Time 6:41 AM MDT 7:07 PM MDT
Civil Twilight 6:11 AM MDT 7:36 PM MDT
Nautical Twilight 5:37 AM MDT 8:11 PM MDT
Astronomical Twilight 5:01 AM MDT 8:47 PM MDT
Moon 5:39 PM MDT 5:29 AM MDT
Length of Visible Light 13h 25m
Length of Day
12h 26m
Waxing Gibbous, 97% of the Moon is Illuminated
Mar 25
Waxing Gibbous
Mar 27
Full
Apr 2
Last Quarter
Apr 10
New
Apr 18
First Quarter

Hourly Weather History & Observations

Time (MDT) Temp. Windchill Dew Point Humidity Pressure Visibility Wind Dir Wind Speed Gust Speed Precip Events Conditions
12:56 AM 10.0 °F -5.9 °F 7.0 °F 87% 30.43 in - NW 13.8 mph - N/A   Unknown
1:56 AM 10.9 °F -3.4 °F 8.1 °F 88% 30.44 in - NW 11.5 mph - N/A   Unknown
2:56 AM 10.9 °F -3.4 °F 8.1 °F 88% 30.44 in - NNW 11.5 mph - N/A   Unknown
3:56 AM 6.1 °F -8.7 °F 3.9 °F 91% 30.45 in - NW 10.4 mph - N/A   Unknown
4:56 AM 7.0 °F -7.5 °F 3.9 °F 87% 30.45 in - NNW 10.4 mph - N/A   Unknown
5:56 AM 6.1 °F -9.5 °F 3.0 °F 87% 30.46 in - NNW 11.5 mph - N/A   Unknown
6:56 AM 3.0 °F -8.0 °F 1.0 °F 91% 30.48 in - WNW 5.8 mph - N/A   Unknown
7:56 AM 6.1 °F -7.8 °F 3.0 °F 87% 30.48 in - NW 9.2 mph - N/A   Unknown
8:56 AM 12.0 °F -2.7 °F 8.1 °F 84% 30.47 in - NW 12.7 mph - N/A   Unknown
9:56 AM 14.0 °F 0.5 °F 10.0 °F 84% 30.48 in - NW 11.5 mph - N/A   Unknown
10:56 AM 18.0 °F 5.4 °F 12.0 °F 78% 30.47 in - North 11.5 mph - N/A   Unknown
11:56 AM 19.9 °F 10.1 °F 14.0 °F 78% 30.48 in - NNW 8.1 mph - N/A   Unknown
12:56 PM 23.0 °F 13.9 °F 14.0 °F 68% 30.46 in - North 8.1 mph - N/A   Unknown
1:56 PM 25.0 °F 15.5 °F 12.0 °F 58% 30.43 in - NW 9.2 mph - N/A   Unknown
2:56 PM 27.0 °F 19.5 °F 12.0 °F 53% 30.41 in - NNW 6.9 mph - N/A   Unknown
3:56 PM 28.9 °F 23.9 °F 12.0 °F 49% 30.41 in - Variable 4.6 mph - N/A   Unknown
4:56 PM 28.9 °F 23.9 °F 10.9 °F 47% 30.40 in - NNE 4.6 mph - N/A   Unknown
5:56 PM 28.9 °F - 10.9 °F 47% 30.40 in - Calm Calm - N/A   Unknown
6:56 PM 25.0 °F 19.3 °F 12.0 °F 58% 30.41 in - SSE 4.6 mph - N/A   Unknown
7:56 PM 21.9 °F 12.5 °F 10.9 °F 63% 30.40 in - SE 8.1 mph - N/A   Unknown
8:56 PM 21.0 °F 9.3 °F 12.9 °F 71% 30.39 in - SE 11.5 mph - N/A   Unknown
9:56 PM 19.0 °F 6.8 °F 12.0 °F 74% 30.39 in - SSE 11.5 mph - N/A   Unknown
10:56 PM 17.1 °F 4.3 °F 12.0 °F 81% 30.38 in - SSE 11.5 mph - N/A   Unknown
11:56 PM 15.1 °F 1.8 °F 10.0 °F 80% 30.36 in - SSE 11.5 mph - N/A   Unknown